Skip Navigation Links Skip Navigation Links

Current Weather

Joliet Regional, Joliet, Ill.

For information only: do not use for flight planning or navigation.
Latest weather
Observation time Tuesday, October 19, 2021 3:35 AM CDT
Local time Tuesday, October 19, 2021 3:44 AM CDT
Flight conditions Visual Meteorological Conditions
Winds
Wind speed calm
Visibility 10 mi.
Sky condition
Ceiling unlimited
Sky clear
Temperature 47°F
Dewpoint 46°F
Altimeter 30.11 in.Hg
Derived measurements
Relative humidity 96%
Wind chill 47°F
Density altitude -263 ft.
Remarks
Fully automated report.
Automated weather observing station with precipitation discriminator.
METAR KJOT 190835Z AUTO 00000KT 10SM CLR 09/08 A3011 RMK AO2 T00850079

Settings

Location code

InnerDrive.Weather 4.0.6770.0 Release CLR 4.0.30319.42000
Copyright ©2018 Inner Drive Technology. All rights reserved. Portions Copyright ©1986-2018 David Braverman.

Find weather

Site navigation


Skip Navigation Links

Place info

Page info

PayPal - The safer, easier way to pay online!

Return home.

Copyright ©2021 Inner Drive Technology. Purveyors of fine, hand-crafted computer software. Page printed 2021-10-19T08:44:56 UTC.